User: anonymous   Login
Location: Theydon Bois
(51.6750°N, 0.1050°E)
Time: 18:46:41
(UTC+01:00)
Language:

KORONAS-FOTON - Orbit

View from above orbital plane
View from above orbital plane
View from above satellite
View from above satellite

Ground track
Ground track

The orbit data is extracted from the following two-line orbital elements,

1 33504U 09003A   18224.80997467 +.00000672 +00000-0 +33876-4 0  9990
2 33504 082.4437 173.8753 0021021 092.2457 268.1182 15.15210676525312
Epoch (UTC): 12 August 2018 19:26:21
Eccentricity: 0.0021021
inclination: 82.4437°
perigee height: 506 km
apogee height: 535 km
right ascension of ascending node: 173.8753°
argument of perigee: 92.2457°
revolutions per day: 15.15210676
mean anomaly at epoch: 268.1182°
orbit number at epoch: 52531

The dashed part of the orbit path shows where the satellite is in the earth's shadow,  

DLR